CZ-4B DEB, 25733

Orbit data source: Space-Track

CZ-4B DEB, 25733 is space debris in SSO originally from a launch on Mon, 10 May 1999 UTC launched from the Taiyaun Space Center, China (TSC). Debris objects in space refer to the collection of defunct objects orbiting the Earth. Examples of debris include non-operational satellites, rocket bodies, and fragments generated from explosions, collisions, or faulty payload assembly.

Loading next visibility...
Identifier
25733, 1999-025D
Orbit
SSO
Country
Flag of CNCN / PRC
Related business
Manufacturer
Unknown
Mission
Spacecraft
Bus & Motor
Unknown
Mass
~50 kg wet, ~50 kg dry
Launch date (UTC)
1999-05-10 (27 years ago)
Launch vehicle
Unknown
Launch site
Taiyaun Space Center, China (TSC)
Object type
Payload
Rocket body
Debris
Shape & HBR
Cone, 1.4 m
Radar Cross Section
3.657 m², Large (>1 m²)

Expand to show TLE details & history
Last TLE update: 11 hours ago

TLE from 11 hours ago
0 CZ-4B DEB
1 25733U 99025D   26150.08790608  .00000507  00000-0  26365-3 0  9994
2 25733  98.6820 193.9370 0013489 227.2361 132.7681 14.18925395397458
Epoch: 2026-05-30T02:06Z
TLE epoch observation values (Epoch: 2026-05-30T02:06:35.085Z)
Latitude
-0°
Longitude
-85.31815°
Altitude
838.513 km
Speed
7.43 km/s
True Right ascension
12h 55m 44s
True Declination
0° 00' 00"
Sunlit
Object was in full shadow at epoch
Visualization orbit readout
Latitude
Unknown
Longitude
Unknown
Altitude
Unknown
Speed
Unknown
Apparent Right ascension
Unknown
Apparent Declination
Unknown
Sunlit
N/A
Visualization observer readout
Local Sidereal Time
22:09:30
Azimuth
Unknown
Elevation
Unknown
Doppler factor
Unknown
Orbital elements
Apogee altitude
835.866 km
Perigee altitude
816.43 km
Semi-major axis
7,204.285 km
Eccentricity
0.00135
Inclination
98.682°
RAAN
193.937°
Arg. of periapsis
227.2361°
True anomaly
132.88144°
Mean anomaly
132.7681°
Eccentric anomaly
132.82478°
Mean motion
3.54942 °/min
Orbital period
101.43 mins
BSTAR
0.00026365
Loading maneuver chart data...
Computing Atmospheric mass density...
Loading historical data...
Loading historical data...
Loading historical data...
Loading historical data...
Loading historical data...
Loading historical data...
Loading historical data...

Documentation

Showing up to 5 results
|